Вернуться в каталог

STARLINK-35355

АктивенСвязьVLEO
NORAD 66448·PAYLOAD·🇺🇸 United States

Запущен Nov 11, 2025 с Cape Canaveral Space Force Station

Loading…

Ближайшие Пролёты (ближайшие 24 часа)

TLE

СвежийSource: CelesTrak SupGP

Эпоха: Sep 15, 2026, 03:49 UTC

1 66448C 25259AC  26258.15951389 -.00008740  00000+0 -31626-3 0  2584
2 66448  43.0000 284.6731 0001386 273.4865 103.7485 15.27614077    10

Отслеживайте STARLINK-35355 в реальном времени с AllMySat

Download on the App Store